| time (UTC) | temp C | wind direction | speed KPH | gust KPH | rain 1hr cm | rain 24hr cm | rain mn cm | humidity % | barometer mb |
| 20260507180504 | 22 | 257 | 8.0 | 25.7 | 0.00 | 0.00 | 0.00 | 35 | 1013.1 |
| 20260507180022 | 22 | 215 | 9.7 | 25.7 | 0.00 | 0.00 | 0.00 | 33 | 1013.1 |
| 20260507175504 | 22 | 263 | 14.5 | 29.0 | 0.00 | 0.00 | 0.00 | 33 | 1013.3 |
| 20260507175005 | 22 | 262 | 9.7 | 29.0 | 0.00 | 0.00 | 0.00 | 34 | 1013.3 |
| 20260507174522 | 22 | 271 | 11.3 | 29.0 | 0.00 | 0.00 | 0.00 | 36 | 1013.4 |
| 20260507174007 | 21 | 248 | 14.5 | 27.4 | 0.00 | 0.00 | 0.00 | 35 | 1013.5 |
| 20260507173512 | 21 | 223 | 12.9 | 27.4 | 0.00 | 0.00 | 0.00 | 36 | 1013.6 |
| 20260507173035 | 21 | 272 | 11.3 | 38.6 | 0.00 | 0.00 | 0.00 | 36 | 1013.7 |
| 20260507172503 | 21 | 267 | 12.9 | 38.6 | 0.00 | 0.00 | 0.00 | 37 | 1013.9 |
| 20260507172003 | 21 | 253 | 11.3 | 27.4 | 0.00 | 0.00 | 0.00 | 38 | 1013.8 |
| 20260507171512 | 20 | 257 | 9.7 | 29.0 | 0.00 | 0.00 | 0.00 | 37 | 1014.0 |
| 20260507171007 | 20 | 256 | 17.7 | 29.0 | 0.00 | 0.00 | 0.00 | 38 | 1014.2 |
| 20260507170503 | 20 | 211 | 8.0 | 32.2 | 0.00 | 0.00 | 0.00 | 38 | 1014.3 |
| 20260507170015 | 20 | 229 | 11.3 | 32.2 | 0.00 | 0.00 | 0.00 | 37 | 1014.3 |
| 20260507165509 | 20 | 203 | 11.3 | 25.7 | 0.00 | 0.00 | 0.00 | 38 | 1014.3 |
| 20260507165007 | 20 | 266 | 12.9 | 29.0 | 0.00 | 0.00 | 0.00 | 39 | 1014.4 |
| 20260507164529 | 20 | 188 | 14.5 | 29.0 | 0.00 | 0.00 | 0.00 | 39 | 1014.5 |
| 20260507164010 | 19 | 234 | 6.4 | 25.7 | 0.00 | 0.00 | 0.00 | 41 | 1014.5 |
| 20260507163509 | 19 | 276 | 12.9 | 24.1 | 0.00 | 0.00 | 0.00 | 40 | 1014.5 |
| 20260507163026 | 18 | 261 | 8.0 | 24.1 | 0.00 | 0.00 | 0.00 | 43 | 1014.7 |
| 20260507162510 | 18 | 259 | 11.3 | 24.1 | 0.00 | 0.00 | 0.00 | 43 | 1014.9 |
| 20260507162005 | 18 | 209 | 8.0 | 30.6 | 0.00 | 0.00 | 0.00 | 45 | 1014.9 |
| 20260507161512 | 17 | 226 | 11.3 | 30.6 | 0.00 | 0.00 | 0.00 | 46 | 1015.0 |
| 20260507161007 | 17 | 254 | 11.3 | 24.1 | 0.00 | 0.00 | 0.00 | 46 | 1014.9 |
| 20260507160508 | 17 | 295 | 9.7 | 22.5 | 0.00 | 0.00 | 0.00 | 45 | 1015.0 |
| 20260507160020 | 17 | 297 | 8.0 | 25.7 | 0.00 | 0.00 | 0.00 | 47 | 1015.0 |
| 20260507155508 | 17 | 276 | 9.7 | 25.7 | 0.00 | 0.00 | 0.00 | 48 | 1015.1 |
| 20260507155007 | 16 | 213 | 6.4 | 22.5 | 0.00 | 0.00 | 0.00 | 49 | 1015.1 |
| 20260507154525 | 16 | 231 | 8.0 | 22.5 | 0.00 | 0.00 | 0.00 | 50 | 1015.1 |
| 20260507154009 | 16 | 262 | 8.0 | 27.4 | 0.00 | 0.00 | 0.00 | 50 | 1015.2 |
| 20260507153507 | 15 | 212 | 11.3 | 29.0 | 0.00 | 0.00 | 0.00 | 50 | 1015.4 |
| 20260507153008 | 15 | 220 | 11.3 | 30.6 | 0.00 | 0.00 | 0.00 | 51 | 1015.5 |
| 20260507152507 | 15 | 252 | 11.3 | 32.2 | 0.00 | 0.00 | 0.00 | 51 | 1015.5 |
| 20260507152007 | 15 | 170 | 12.9 | 32.2 | 0.00 | 0.00 | 0.00 | 52 | 1015.6 |
| 20260507151514 | 14 | 249 | 8.0 | 24.1 | 0.00 | 0.00 | 0.00 | 55 | 1015.6 |
| 20260507151005 | 14 | 277 | 6.4 | 27.4 | 0.00 | 0.03 | 0.00 | 56 | 1015.7 |
| 20260507150505 | 13 | 251 | 8.0 | 27.4 | 0.00 | 0.03 | 0.00 | 58 | 1015.7 |
| 20260507150020 | 13 | 256 | 9.7 | 24.1 | 0.00 | 0.03 | 0.00 | 59 | 1015.8 |
| 20260507145512 | 13 | 284 | 6.4 | 20.9 | 0.00 | 0.03 | 0.00 | 60 | 1015.7 |
| 20260507145009 | 12 | 285 | 9.7 | 19.3 | 0.00 | 0.03 | 0.00 | 62 | 1015.8 |
| 20260507144531 | 12 | 263 | 8.0 | 19.3 | 0.00 | 0.03 | 0.00 | 64 | 1015.9 |
| 20260507144011 | 11 | 260 | 6.4 | 22.5 | 0.00 | 0.03 | 0.00 | 66 | 1016.0 |
| 20260507143512 | 11 | 260 | 9.7 | 27.4 | 0.00 | 0.03 | 0.00 | 69 | 1016.0 |
| 20260507143019 | 10 | 301 | 8.0 | 27.4 | 0.00 | 0.03 | 0.00 | 69 | 1016.1 |
| 20260507142505 | 10 | 256 | 12.9 | 27.4 | 0.00 | 0.03 | 0.00 | 69 | 1016.1 |
| 20260507142008 | 10 | 256 | 11.3 | 24.1 | 0.00 | 0.03 | 0.00 | 71 | 1016.1 |
| 20260507141517 | 10 | 240 | 9.7 | 20.9 | 0.00 | 0.03 | 0.00 | 73 | 1016.0 |
| 20260507141012 | 10 | 261 | 8.0 | 27.4 | 0.00 | 0.03 | 0.00 | 74 | 1016.0 |
| 20260507140510 | 9 | 254 | 11.3 | 27.4 | 0.00 | 0.03 | 0.00 | 74 | 1016.1 |
| 20260507140023 | 9 | 261 | 9.7 | 20.9 | 0.00 | 0.03 | 0.00 | 75 | 1016.2 |
| 20260507135509 | 8 | 211 | 6.4 | 27.4 | 0.00 | 0.03 | 0.00 | 77 | 1016.2 |
| 20260507135010 | 8 | 214 | 11.3 | 27.4 | 0.00 | 0.03 | 0.00 | 77 | 1016.3 |
| 20260507134528 | 8 | 223 | 6.4 | 27.4 | 0.00 | 0.03 | 0.00 | 78 | 1016.4 |
| 20260507134008 | 8 | 330 | 12.9 | 24.1 | 0.00 | 0.03 | 0.00 | 79 | 1016.4 |
| 20260507133503 | 7 | 234 | 11.3 | 22.5 | 0.00 | 0.03 | 0.00 | 80 | 1016.6 |
| 20260507133016 | 7 | 250 | 6.4 | 22.5 | 0.00 | 0.03 | 0.00 | 80 | 1016.8 |
| 20260507132511 | 7 | 243 | 6.4 | 19.3 | 0.00 | 0.03 | 0.00 | 81 | 1016.8 |
| 20260507132009 | 7 | 240 | 8.0 | 19.3 | 0.00 | 0.03 | 0.00 | 81 | 1017.0 |
| 20260507131529 | 6 | 242 | 9.7 | 17.7 | 0.00 | 0.05 | 0.00 | 82 | 1017.0 |
| 20260507131008 | 6 | 302 | 9.7 | 19.3 | 0.00 | 0.05 | 0.00 | 83 | 1016.8 |
| 20260507130513 | 6 | 266 | 6.4 | 19.3 | 0.00 | 0.05 | 0.00 | 84 | 1016.6 |
| 20260507130027 | 6 | 261 | 6.4 | 24.1 | 0.00 | 0.05 | 0.00 | 85 | 1016.7 |
| 20260507125509 | 5 | 242 | 6.4 | 24.1 | 0.00 | 0.05 | 0.00 | 86 | 1016.6 |
| 20260507125011 | 5 | 202 | 9.7 | 24.1 | 0.00 | 0.05 | 0.00 | 86 | 1016.6 |
| 20260507124525 | 5 | 306 | 8.0 | 12.9 | 0.00 | 0.05 | 0.00 | 88 | 1016.7 |
| 20260507124009 | 4 | 223 | 3.2 | 14.5 | 0.00 | 0.05 | 0.00 | 88 | 1016.7 |
| 20260507123506 | 4 | 208 | 3.2 | 14.5 | 0.00 | 0.05 | 0.00 | 89 | 1016.7 |
| 20260507123016 | 3 | 250 | 6.4 | 14.5 | 0.00 | 0.05 | 0.00 | 89 | 1016.7 |
| 20260507122507 | 3 | 196 | 3.2 | 11.3 | 0.00 | 0.05 | 0.00 | 89 | 1016.7 |
| 20260507122008 | 3 | 252 | 4.8 | 12.9 | 0.00 | 0.05 | 0.00 | 89 | 1016.7 |
| 20260507121524 | 3 | 269 | 4.8 | 12.9 | 0.00 | 0.08 | 0.00 | 89 | 1016.8 |
| 20260507121007 | 3 | 267 | 3.2 | 11.3 | 0.00 | 0.08 | 0.00 | 89 | 1016.8 |
| 20260507120508 | 3 | 264 | 3.2 | 11.3 | 0.00 | 0.08 | 0.00 | 89 | 1016.8 |
| 20260507120039 | 3 | 256 | 4.8 | 11.3 | 0.00 | 0.08 | 0.00 | 88 | 1016.7 |
| 20260507115507 | 3 | 304 | 3.2 | 9.7 | 0.00 | 0.10 | 0.00 | 88 | 1016.7 |
| 20260507115011 | 3 | 226 | 3.2 | 9.7 | 0.00 | 0.10 | 0.00 | 88 | 1016.7 |
| 20260507114527 | 3 | 273 | 3.2 | 11.3 | 0.00 | 0.13 | 0.00 | 88 | 1016.6 |
| 20260507114006 | 3 | 229 | 1.6 | 11.3 | 0.00 | 0.13 | 0.00 | 88 | 1016.7 |
| 20260507113511 | 3 | 218 | 1.6 | 6.4 | 0.00 | 0.13 | 0.00 | 89 | 1016.8 |
| 20260507113035 | 3 | 223 | 1.6 | 14.5 | 0.00 | 0.15 | 0.00 | 88 | 1016.7 |
| 20260507112512 | 3 | 196 | 3.2 | 12.9 | 0.00 | 0.15 | 0.00 | 89 | 1016.6 |
| 20260507112016 | 3 | 240 | 4.8 | 9.7 | 0.00 | 0.15 | 0.00 | 88 | 1016.9 |
| 20260507111525 | 3 | 248 | 3.2 | 12.9 | 0.00 | 0.15 | 0.00 | 88 | 1017.0 |
| 20260507111010 | 3 | 258 | 6.4 | 12.9 | 0.00 | 0.15 | 0.00 | 88 | 1017.0 |
| 20260507110507 | 3 | 259 | 4.8 | 12.9 | 0.00 | 0.15 | 0.00 | 88 | 1017.0 |
| 20260507110031 | 3 | 231 | 4.8 | 11.3 | 0.00 | 0.15 | 0.00 | 88 | 1017.0 |
| 20260507105509 | 3 | 245 | 3.2 | 14.5 | 0.00 | 0.15 | 0.00 | 88 | 1017.1 |
| 20260507105008 | 3 | 252 | 4.8 | 14.5 | 0.00 | 0.15 | 0.00 | 88 | 1017.1 |
| 20260507104528 | 3 | 246 | 3.2 | 12.9 | 0.00 | 0.18 | 0.00 | 88 | 1017.1 |
| 20260507104005 | 3 | 230 | 4.8 | 12.9 | 0.00 | 0.18 | 0.00 | 88 | 1017.3 |
| 20260507103505 | 3 | 244 | 4.8 | 16.1 | 0.00 | 0.18 | 0.00 | 88 | 1017.3 |
| 20260507103023 | 3 | 219 | 3.2 | 16.1 | 0.00 | 0.18 | 0.00 | 88 | 1017.4 |
| 20260507102502 | 3 | 281 | 4.8 | 12.9 | 0.00 | 0.18 | 0.00 | 88 | 1017.3 |
| 20260507102006 | 3 | 246 | 3.2 | 12.9 | 0.00 | 0.18 | 0.00 | 88 | 1017.3 |
| 20260507101507 | 3 | 265 | 4.8 | 11.3 | 0.00 | 0.18 | 0.00 | 88 | 1017.4 |
| 20260507101004 | 3 | 224 | 4.8 | 12.9 | 0.00 | 0.18 | 0.00 | 88 | 1017.4 |
| 20260507100504 | 3 | 243 | 3.2 | 12.9 | 0.00 | 0.18 | 0.00 | 88 | 1017.4 |
| 20260507100015 | 3 | 239 | 4.8 | 14.5 | 0.00 | 0.18 | 0.00 | 88 | 1017.4 |
| 20260507095505 | 3 | 238 | 4.8 | 14.5 | 0.00 | 0.18 | 0.00 | 88 | 1017.5 |
| 20260507095009 | 4 | 252 | 6.4 | 14.5 | 0.00 | 0.20 | 0.00 | 88 | 1017.5 |
| 20260507094518 | 4 | 224 | 4.8 | 8.0 | 0.00 | 0.20 | 0.00 | 88 | 1017.5 |
| 20260507094007 | 4 | 236 | 3.2 | 12.9 | 0.00 | 0.20 | 0.00 | 88 | 1017.5 |
| 20260507093507 | 4 | 232 | 4.8 | 12.9 | 0.00 | 0.23 | 0.00 | 88 | 1017.4 |
| 20260507093022 | 4 | 227 | 1.6 | 11.3 | 0.00 | 0.23 | 0.00 | 88 | 1017.4 |
| 20260507092503 | 4 | 250 | 3.2 | 12.9 | 0.00 | 0.25 | 0.00 | 88 | 1017.5 |
| 20260507092004 | 4 | 260 | 3.2 | 12.9 | 0.00 | 0.25 | 0.00 | 87 | 1017.5 |
| 20260507091508 | 4 | 265 | 1.6 | 9.7 | 0.00 | 0.25 | 0.00 | 87 | 1017.6 |
| 20260507091003 | 4 | 242 | 1.6 | 9.7 | 0.00 | 0.25 | 0.00 | 87 | 1017.7 |
| 20260507090507 | 4 | 247 | 1.6 | 9.7 | 0.00 | 0.25 | 0.00 | 87 | 1017.7 |
| 20260507090015 | 4 | 227 | 1.6 | 8.0 | 0.00 | 0.25 | 0.00 | 87 | 1017.8 |
| 20260507085508 | 4 | 240 | 3.2 | 8.0 | 0.00 | 0.25 | 0.00 | 86 | 1017.9 |
| 20260507085007 | 4 | 229 | 1.6 | 6.4 | 0.00 | 0.25 | 0.00 | 86 | 1017.9 |
| 20260507084521 | 5 | 234 | 1.6 | 6.4 | 0.00 | 0.28 | 0.00 | 86 | 1017.9 |
| 20260507084010 | 5 | 207 | 1.6 | 4.8 | 0.00 | 0.28 | 0.00 | 86 | 1018.0 |
| 20260507083507 | 5 | 249 | 1.6 | 9.7 | 0.00 | 0.28 | 0.00 | 86 | 1018.0 |
| 20260507083024 | 5 | 222 | 1.6 | 9.7 | 0.00 | 0.28 | 0.00 | 86 | 1018.1 |
| 20260507082508 | 5 | 234 | 1.6 | 9.7 | 0.00 | 0.30 | 0.00 | 86 | 1018.2 |
| 20260507082003 | 5 | 265 | 1.6 | 9.7 | 0.00 | 0.30 | 0.00 | 85 | 1018.2 |
| 20260507081511 | 5 | 244 | 3.2 | 11.3 | 0.00 | 0.30 | 0.00 | 85 | 1018.3 |
| 20260507081004 | 5 | 259 | 4.8 | 11.3 | 0.00 | 0.33 | 0.00 | 85 | 1018.4 |
| 20260507080505 | 5 | 215 | 3.2 | 11.3 | 0.00 | 0.33 | 0.00 | 85 | 1018.5 |
| 20260507080020 | 5 | 250 | 3.2 | 11.3 | 0.00 | 0.36 | 0.00 | 85 | 1018.6 |
| 20260507075506 | 5 | 234 | 3.2 | 12.9 | 0.00 | 0.36 | 0.00 | 85 | 1018.7 |
| 20260507075007 | 5 | 249 | 3.2 | 12.9 | 0.00 | 0.36 | 0.00 | 85 | 1018.7 |
| 20260507074530 | 5 | 252 | 3.2 | 12.9 | 0.00 | 0.38 | 0.00 | 85 | 1018.7 |
| 20260507074007 | 5 | 251 | 4.8 | 11.3 | 0.00 | 0.38 | 0.00 | 85 | 1018.8 |
| 20260507073508 | 5 | 261 | 1.6 | 11.3 | 0.00 | 0.38 | 0.00 | 85 | 1018.9 |
| 20260507073028 | 5 | 242 | 3.2 | 9.7 | 0.00 | 0.41 | 0.00 | 84 | 1018.8 |
| 20260507072505 | 5 | 284 | 1.6 | 8.0 | 0.00 | 0.41 | 0.00 | 84 | 1018.9 |
| 20260507072006 | 6 | 280 | 1.6 | 8.0 | 0.00 | 0.43 | 0.00 | 84 | 1018.9 |
| 20260507071507 | 6 | 269 | 3.2 | 11.3 | 0.00 | 0.43 | 0.00 | 84 | 1019.0 |
| 20260507071006 | 6 | 273 | 3.2 | 11.3 | 0.00 | 0.43 | 0.00 | 84 | 1019.1 |
| 20260507070506 | 6 | 257 | 3.2 | 11.3 | 0.00 | 0.43 | 0.00 | 84 | 1019.1 |
| 20260507070018 | 6 | 298 | 3.2 | 6.4 | 0.00 | 0.43 | 0.00 | 84 | 1019.1 |
| 20260507065510 | 6 | 238 | 1.6 | 9.7 | 0.00 | 0.43 | 0.00 | 84 | 1019.1 |
| 20260507065006 | 6 | 250 | 3.2 | 9.7 | 0.00 | 0.43 | 0.00 | 84 | 1019.1 |
| 20260507064524 | 6 | 262 | 1.6 | 6.4 | 0.00 | 0.43 | 0.00 | 84 | 1019.2 |
| 20260507064009 | 6 | 239 | 1.6 | 4.8 | 0.00 | 0.43 | 0.00 | 84 | 1019.3 |
| 20260507063508 | 6 | 249 | 1.6 | 6.4 | 0.00 | 0.43 | 0.00 | 83 | 1019.3 |
| 20260507063008 | 6 | 261 | 1.6 | 6.4 | 0.00 | 0.43 | 0.00 | 83 | 1019.3 |
| 20260507062504 | 6 | 242 | 3.2 | 6.4 | 0.00 | 0.43 | 0.00 | 83 | 1019.4 |
| 20260507062007 | 6 | 265 | 3.2 | 6.4 | 0.00 | 0.43 | 0.00 | 82 | 1019.5 |
| 20260507061516 | 6 | 245 | 1.6 | 3.2 | 0.00 | 0.43 | 0.00 | 82 | 1019.5 |
| 20260507061009 | 7 | 229 | 1.6 | 4.8 | 0.00 | 0.43 | 0.00 | 82 | 1019.6 |
| 20260507060505 | 7 | 246 | 1.6 | 6.4 | 0.00 | 0.46 | 0.00 | 82 | 1019.6 |
| 20260507060019 | 7 | 239 | 1.6 | 6.4 | 0.00 | 0.46 | 0.00 | 82 | 1019.7 |
| 20260507055507 | 7 | 273 | 3.2 | 6.4 | 0.00 | 0.46 | 0.00 | 81 | 1019.8 |
| 20260507055006 | 7 | 303 | 3.2 | 11.3 | 0.00 | 0.46 | 0.00 | 81 | 1019.9 |
| 20260507054527 | 7 | 260 | 3.2 | 11.3 | 0.00 | 0.46 | 0.00 | 80 | 1020.0 |
| 20260507054009 | 7 | 241 | 3.2 | 6.4 | 0.00 | 0.46 | 0.00 | 80 | 1019.9 |
| 20260507053510 | 7 | 284 | 1.6 | 9.7 | 0.00 | 0.46 | 0.00 | 80 | 1019.9 |
| 20260507053007 | 7 | 304 | 3.2 | 12.9 | 0.00 | 0.46 | 0.00 | 79 | 1019.8 |
| 20260507052506 | 7 | 309 | 6.4 | 12.9 | 0.00 | 0.48 | 0.00 | 79 | 1019.8 |
| 20260507052006 | 7 | 296 | 4.8 | 16.1 | 0.00 | 0.48 | 0.00 | 78 | 1019.7 |
| 20260507051518 | 7 | 279 | 3.2 | 16.1 | 0.00 | 0.48 | 0.00 | 78 | 1019.7 |
| 20260507051007 | 8 | 291 | 8.0 | 16.1 | 0.00 | 0.48 | 0.00 | 77 | 1019.6 |
| 20260507050510 | 8 | 277 | 6.4 | 14.5 | 0.00 | 0.48 | 0.00 | 77 | 1019.6 |
| 20260507050024 | 8 | 274 | 4.8 | 14.5 | 0.00 | 0.48 | 0.00 | 76 | 1019.6 |
| 20260507045510 | 8 | 255 | 4.8 | 14.5 | 0.00 | 0.48 | 0.48 | 76 | 1019.6 |
| 20260507045006 | 8 | 266 | 4.8 | 14.5 | 0.00 | 0.48 | 0.48 | 75 | 1019.6 |
| 20260507044527 | 8 | 294 | 4.8 | 14.5 | 0.00 | 0.48 | 0.48 | 74 | 1019.7 |
| 20260507044009 | 9 | 284 | 4.8 | 14.5 | 0.00 | 0.48 | 0.48 | 74 | 1019.7 |
| 20260507043510 | 9 | 308 | 4.8 | 11.3 | 0.00 | 0.48 | 0.48 | 73 | 1019.7 |
| 20260507043012 | 9 | 259 | 4.8 | 11.3 | 0.00 | 0.48 | 0.48 | 72 | 1019.6 |
| 20260507042506 | 9 | 277 | 4.8 | 11.3 | 0.00 | 0.48 | 0.48 | 72 | 1019.6 |
| 20260507042005 | 9 | 288 | 3.2 | 11.3 | 0.00 | 0.48 | 0.48 | 71 | 1019.6 |
| 20260507041519 | 9 | 286 | 4.8 | 11.3 | 0.00 | 0.48 | 0.48 | 71 | 1019.6 |
| 20260507041007 | 9 | 279 | 3.2 | 6.4 | 0.00 | 0.48 | 0.48 | 70 | 1019.6 |
| 20260507040507 | 10 | 245 | 1.6 | 4.8 | 0.00 | 0.48 | 0.48 | 70 | 1019.6 |
| 20260507040024 | 10 | 292 | 1.6 | 6.4 | 0.00 | 0.48 | 0.48 | 70 | 1019.5 |
| 20260507035507 | 10 | 271 | 0.0 | 6.4 | 0.00 | 0.48 | 0.48 | 70 | 1019.5 |
| 20260507035011 | 10 | 288 | 0.0 | 4.8 | 0.00 | 0.48 | 0.48 | 70 | 1019.5 |
| 20260507034535 | 10 | 273 | 0.0 | 3.2 | 0.00 | 0.48 | 0.48 | 70 | 1019.5 |
| 20260507034010 | 10 | 279 | 0.0 | 0.0 | 0.00 | 0.48 | 0.48 | 70 | 1019.4 |
| 20260507033506 | 10 | 279 | 0.0 | 3.2 | 0.00 | 0.48 | 0.48 | 70 | 1019.2 |
| 20260507033015 | 10 | 241 | 0.0 | 3.2 | 0.00 | 0.48 | 0.48 | 70 | 1019.2 |
| 20260507032507 | 10 | 292 | 0.0 | 0.0 | 0.00 | 0.48 | 0.48 | 70 | 1019.2 |
| 20260507032006 | 10 | 292 | 0.0 | 0.0 | 0.00 | 0.48 | 0.48 | 70 | 1019.3 |
| 20260507031520 | 10 | 292 | 0.0 | 0.0 | 0.00 | 0.48 | 0.48 | 70 | 1019.3 |
| 20260507031012 | 10 | 292 | 0.0 | 0.0 | 0.00 | 0.48 | 0.48 | 70 | 1019.3 |
| 20260507030507 | 10 | 292 | 0.0 | 0.0 | 0.00 | 0.48 | 0.48 | 70 | 1019.3 |
| 20260507030026 | 10 | 292 | 0.0 | 3.2 | 0.00 | 0.48 | 0.48 | 70 | 1019.3 |
| 20260507025506 | 10 | 292 | 0.0 | 3.2 | 0.00 | 0.48 | 0.48 | 70 | 1019.2 |
| 20260507025007 | 10 | 292 | 0.0 | 4.8 | 0.00 | 0.48 | 0.48 | 70 | 1019.3 |
| 20260507024530 | 10 | 292 | 1.6 | 4.8 | 0.00 | 0.48 | 0.48 | 69 | 1019.4 |
| 20260507024009 | 10 | 286 | 3.2 | 4.8 | 0.00 | 0.48 | 0.48 | 69 | 1019.4 |
| 20260507023506 | 10 | 309 | 3.2 | 9.7 | 0.00 | 0.48 | 0.48 | 69 | 1019.4 |
| 20260507023015 | 10 | 292 | 3.2 | 11.3 | 0.00 | 0.48 | 0.48 | 68 | 1019.3 |
| 20260507022512 | 10 | 287 | 4.8 | 11.3 | 0.00 | 0.48 | 0.48 | 68 | 1019.3 |
| 20260507022007 | 10 | 291 | 1.6 | 8.0 | 0.00 | 0.48 | 0.48 | 68 | 1019.2 |
| 20260507021522 | 10 | 307 | 3.2 | 8.0 | 0.00 | 0.48 | 0.48 | 67 | 1019.0 |
| 20260507021012 | 11 | 290 | 4.8 | 6.4 | 0.00 | 0.48 | 0.48 | 66 | 1018.9 |
| 20260507020507 | 11 | 300 | 4.8 | 9.7 | 0.00 | 0.48 | 0.48 | 66 | 1018.9 |
| 20260507020030 | 11 | 298 | 4.8 | 12.9 | 0.00 | 0.48 | 0.48 | 65 | 1018.8 |
| 20260507015507 | 11 | 296 | 4.8 | 12.9 | 0.00 | 0.48 | 0.48 | 64 | 1018.8 |
| 20260507015010 | 11 | 291 | 4.8 | 6.4 | 0.00 | 0.48 | 0.48 | 63 | 1018.7 |
| 20260507014528 | 11 | 317 | 4.8 | 6.4 | 0.00 | 0.48 | 0.48 | 64 | 1018.6 |
| 20260507014007 | 11 | 317 | 3.2 | 12.9 | 0.00 | 0.51 | 0.48 | 64 | 1018.7 |
| 20260507013504 | 11 | 309 | 6.4 | 12.9 | 0.00 | 0.51 | 0.48 | 64 | 1018.9 |
| 20260507013016 | 11 | 281 | 6.4 | 12.9 | 0.00 | 0.51 | 0.48 | 62 | 1018.9 |
| 20260507012508 | 11 | 309 | 6.4 | 12.9 | 0.00 | 0.51 | 0.48 | 61 | 1018.9 |
| 20260507012008 | 11 | 296 | 4.8 | 12.9 | 0.00 | 0.51 | 0.48 | 60 | 1018.8 |
| 20260507011522 | 11 | 306 | 6.4 | 12.9 | 0.00 | 0.51 | 0.48 | 60 | 1018.7 |
| 20260507011008 | 11 | 317 | 4.8 | 8.0 | 0.00 | 0.51 | 0.48 | 60 | 1018.5 |
| 20260507010511 | 12 | 303 | 6.4 | 8.0 | 0.00 | 0.51 | 0.48 | 59 | 1018.5 |
| 20260507010032 | 12 | 323 | 4.8 | 8.0 | 0.00 | 0.51 | 0.48 | 59 | 1018.5 |
| 20260507005508 | 12 | 309 | 3.2 | 8.0 | 0.00 | 0.51 | 0.48 | 59 | 1018.4 |
| 20260507005008 | 12 | 296 | 4.8 | 8.0 | 0.00 | 0.51 | 0.48 | 58 | 1018.5 |
| 20260507004527 | 12 | 303 | 3.2 | 11.3 | 0.00 | 0.51 | 0.48 | 57 | 1018.4 |
| 20260507004007 | 12 | 311 | 6.4 | 12.9 | 0.00 | 0.51 | 0.48 | 57 | 1018.4 |
| 20260507003507 | 12 | 320 | 6.4 | 12.9 | 0.00 | 0.51 | 0.48 | 58 | 1018.4 |
| 20260507003018 | 12 | 306 | 6.4 | 12.9 | 0.00 | 0.51 | 0.48 | 58 | 1018.3 |
| 20260507002508 | 12 | 300 | 6.4 | 12.9 | 0.00 | 0.51 | 0.48 | 57 | 1018.3 |
| 20260507002008 | 12 | 269 | 4.8 | 12.9 | 0.00 | 0.51 | 0.48 | 56 | 1018.3 |
| 20260507001529 | 12 | 325 | 4.8 | 12.9 | 0.00 | 0.51 | 0.48 | 55 | 1018.3 |
| 20260507001010 | 12 | 335 | 6.4 | 12.9 | 0.00 | 0.51 | 0.48 | 55 | 1018.4 |
| 20260507000512 | 12 | 312 | 3.2 | 16.1 | 0.00 | 0.51 | 0.48 | 55 | 1018.5 |
| 20260507000029 | 12 | 295 | 8.0 | 16.1 | 0.00 | 0.51 | 0.48 | 54 | 1018.5 |
| 20260506235507 | 12 | 311 | 6.4 | 14.5 | 0.00 | 0.51 | 0.48 | 53 | 1018.5 |
| 20260506235012 | 12 | 267 | 9.7 | 17.7 | 0.00 | 0.51 | 0.48 | 55 | 1018.2 |
| 20260506234534 | 13 | 325 | 11.3 | 17.7 | 0.00 | 0.51 | 0.48 | 55 | 1018.2 |
| 20260506234010 | 13 | 10 | 9.7 | 16.1 | 0.00 | 0.51 | 0.48 | 56 | 1018.3 |
| 20260506233509 | 12 | 299 | 3.2 | 8.0 | 0.00 | 0.51 | 0.48 | 55 | 1018.3 |
| 20260506233024 | 12 | 320 | 4.8 | 8.0 | 0.00 | 0.51 | 0.48 | 54 | 1018.3 |
| 20260506232502 | 12 | 320 | 4.8 | 8.0 | 0.00 | 0.51 | 0.48 | 54 | 1018.4 |
| 20260506232002 | 12 | 33 | 1.6 | 8.0 | 0.00 | 0.51 | 0.48 | 55 | 1018.3 |
| 20260506231503 | 12 | 345 | 3.2 | 9.7 | 0.00 | 0.51 | 0.48 | 56 | 1018.2 |
| 20260506231002 | 12 | 318 | 6.4 | 9.7 | 0.00 | 0.51 | 0.48 | 55 | 1018.2 |
| 20260506230501 | 12 | 328 | 6.4 | 11.3 | 0.00 | 0.51 | 0.48 | 54 | 1018.3 |
| 20260506230004 | 12 | 292 | 6.4 | 12.9 | 0.00 | 0.51 | 0.48 | 55 | 1018.5 |
| 20260506225503 | 12 | 291 | 9.7 | 12.9 | 0.00 | 0.51 | 0.48 | 53 | 1018.6 |
| 20260506225003 | 12 | 288 | 8.0 | 14.5 | 0.00 | 0.51 | 0.48 | 55 | 1018.3 |
| 20260506224516 | 12 | 286 | 8.0 | 16.1 | 0.00 | 0.51 | 0.48 | 54 | 1018.4 |
| 20260506224004 | 13 | 323 | 9.7 | 16.1 | 0.00 | 0.51 | 0.48 | 55 | 1018.3 |
| 20260506223503 | 13 | 350 | 4.8 | 14.5 | 0.00 | 0.51 | 0.48 | 54 | 1018.3 |
| 20260506223003 | 13 | 348 | 8.0 | 14.5 | 0.00 | 0.51 | 0.48 | 54 | 1018.2 |
| 20260506222504 | 13 | 307 | 6.4 | 12.9 | 0.00 | 0.51 | 0.48 | 54 | 1018.2 |
| 20260506222003 | 13 | 320 | 4.8 | 12.9 | 0.00 | 0.51 | 0.48 | 52 | 1018.3 |
| 20260506221504 | 13 | 297 | 3.2 | 16.1 | 0.00 | 0.51 | 0.48 | 52 | 1018.2 |
| 20260506221004 | 14 | 314 | 6.4 | 16.1 | 0.00 | 0.51 | 0.48 | 52 | 1018.2 |
| 20260506220503 | 14 | 302 | 8.0 | 17.7 | 0.00 | 0.51 | 0.48 | 51 | 1018.3 |
| 20260506220004 | 15 | 285 | 6.4 | 17.7 | 0.00 | 0.51 | 0.48 | 52 | 1018.4 |
| 20260506215502 | 15 | 302 | 3.2 | 22.5 | 0.00 | 0.51 | 0.48 | 50 | 1018.3 |
| 20260506215002 | 15 | 329 | 12.9 | 22.5 | 0.00 | 0.51 | 0.48 | 51 | 1018.4 |
| 20260506214503 | 15 | 319 | 9.7 | 17.7 | 0.00 | 0.51 | 0.48 | 52 | 1018.3 |
| 20260506214003 | 14 | 298 | 11.3 | 17.7 | 0.00 | 0.51 | 0.48 | 53 | 1018.5 |
| 20260506213504 | 13 | 199 | 6.4 | 12.9 | 0.00 | 0.51 | 0.48 | 55 | 1018.4 |
| 20260506213003 | 13 | 333 | 3.2 | 8.0 | 0.00 | 0.51 | 0.48 | 51 | 1018.5 |
| 20260506212503 | 13 | 92 | 3.2 | 8.0 | 0.00 | 0.51 | 0.48 | 53 | 1018.6 |
| 20260506212003 | 13 | 342 | 3.2 | 11.3 | 0.00 | 0.51 | 0.48 | 54 | 1018.6 |
| 20260506211511 | 13 | 322 | 1.6 | 11.3 | 0.00 | 0.51 | 0.48 | 55 | 1018.7 |
| 20260506211006 | 13 | 333 | 4.8 | 14.5 | 0.00 | 0.51 | 0.48 | 53 | 1018.8 |
| 20260506210503 | 13 | 328 | 8.0 | 14.5 | 0.00 | 0.51 | 0.48 | 54 | 1018.9 |
| 20260506210007 | 13 | 288 | 4.8 | 11.3 | 0.00 | 0.51 | 0.48 | 54 | 1018.9 |
| 20260506205502 | 13 | 60 | 3.2 | 12.9 | 0.00 | 0.51 | 0.48 | 54 | 1018.9 |
| 20260506205002 | 13 | 16 | 4.8 | 12.9 | 0.00 | 0.51 | 0.48 | 53 | 1019.0 |
| 20260506204504 | 13 | 329 | 1.6 | 12.9 | 0.00 | 0.51 | 0.48 | 52 | 1018.9 |
| 20260506204004 | 13 | 315 | 3.2 | 8.0 | 0.00 | 0.51 | 0.48 | 54 | 1019.0 |
| 20260506203504 | 13 | 240 | 0.0 | 11.3 | 0.00 | 0.51 | 0.48 | 54 | 1019.1 |
| 20260506203003 | 13 | 245 | 4.8 | 11.3 | 0.00 | 0.51 | 0.48 | 56 | 1019.2 |
| 20260506202503 | 13 | 288 | 0.0 | 14.5 | 0.00 | 0.51 | 0.48 | 53 | 1019.2 |
| 20260506202003 | 13 | 302 | 6.4 | 14.5 | 0.00 | 0.51 | 0.48 | 55 | 1019.4 |
| 20260506201503 | 13 | 311 | 9.7 | 16.1 | 0.00 | 0.51 | 0.48 | 56 | 1019.4 |
| 20260506201004 | 13 | 290 | 6.4 | 16.1 | 0.00 | 0.51 | 0.48 | 63 | 1019.5 |
| 20260506200504 | 12 | 307 | 9.7 | 16.1 | 0.00 | 0.51 | 0.48 | 60 | 1019.5 |
| 20260506200007 | 12 | 317 | 3.2 | 11.3 | 0.00 | 0.51 | 0.48 | 59 | 1019.5 |
| 20260506195502 | 12 | 44 | 3.2 | 12.9 | 0.00 | 0.51 | 0.48 | 58 | 1019.5 |
| 20260506195004 | 12 | 12 | 4.8 | 14.5 | 0.00 | 0.51 | 0.48 | 58 | 1019.6 |
| 20260506194504 | 12 | 329 | 8.0 | 14.5 | 0.00 | 0.51 | 0.48 | 60 | 1019.6 |
| 20260506194006 | 12 | 318 | 4.8 | 14.5 | 0.00 | 0.51 | 0.48 | 62 | 1019.9 |
| 20260506193502 | 12 | 198 | 4.8 | 12.9 | 0.00 | 0.51 | 0.48 | 62 | 1019.9 |
| 20260506193005 | 12 | 37 | 3.2 | 8.0 | 0.00 | 0.51 | 0.48 | 59 | 1019.9 |
| 20260506192504 | 12 | 20 | 3.2 | 8.0 | 0.00 | 0.51 | 0.48 | 60 | 1019.9 |
| 20260506192006 | 12 | 94 | 3.2 | 8.0 | 0.00 | 0.51 | 0.48 | 60 | 1019.9 |
| 20260506191507 | 11 | 311 | 1.6 | 8.0 | 0.00 | 0.51 | 0.48 | 61 | 1019.8 |
| 20260506191003 | 12 | 248 | 1.6 | 6.4 | 0.00 | 0.51 | 0.48 | 61 | 1020.0 |
| 20260506190505 | 12 | 319 | 3.2 | 11.3 | 0.00 | 0.51 | 0.48 | 59 | 1020.0 |
| 20260506190006 | 12 | 303 | 3.2 | 11.3 | 0.00 | 0.51 | 0.48 | 61 | 1020.1 |
| 20260506185505 | 11 | 281 | 4.8 | 11.3 | 0.00 | 0.51 | 0.48 | 61 | 1020.1 |
| 20260506185002 | 11 | 296 | 4.8 | 11.3 | 0.00 | 0.51 | 0.48 | 61 | 1020.1 |
| 20260506184507 | 11 | 36 | 4.8 | 8.0 | 0.00 | 0.51 | 0.48 | 61 | 1019.9 |
| 20260506184003 | 11 | 51 | 1.6 | 4.8 | 0.00 | 0.51 | 0.48 | 63 | 1020.0 |
| 20260506183504 | 11 | 52 | 1.6 | 4.8 | 0.00 | 0.51 | 0.48 | 63 | 1020.1 |
| 20260506183007 | 11 | 84 | 1.6 | 3.2 | 0.00 | 0.51 | 0.48 | 63 | 1020.1 |
| 20260506182503 | 11 | 244 | 0.0 | 3.2 | 0.00 | 0.51 | 0.48 | 64 | 1020.1 |
| 20260506182004 | 11 | 171 | 1.6 | 4.8 | 0.00 | 0.51 | 0.48 | 63 | 1020.2 |
| 20260506181506 | 11 | 160 | 1.6 | 4.8 | 0.00 | 0.51 | 0.48 | 64 | 1020.2 |
| 20260506181004 | 11 | 161 | 1.6 | 3.2 | 0.00 | 0.51 | 0.48 | 62 | 1020.3 |